x

Mid Gulf - 180 Nm South Of Southwest Pass, La (42001) Wave Buoy

7:50am - Sat 29th Aug 2015 All times are UTC.

  • Sig Wave height 1.3ft
  • Swell Direction
  • Peak Period 6s
  • Average Period 5s
  • Wind
    11mph, 13mph gusts
  • Sea Temp 85°f
  • Air Temp 83°f
  • Sea Pressure 1015.5mb

More Historic Weather Station data

Upgrade to MSW Pro to gain access to the past 30 days of data for over 8000 Wavebouys and Weather Stations around the globe.

Join Pro

Comparision Forecast

View Surf forecast
   
Sat 08/29 7:50am 1.3ft 6s 5s 11 13 mph 1015.5mb 85f 83f
7:40am 1.3ft  -  5s 9 11 mph 1015.5mb 86f 83f
7:30am  -   -   -  9 11 mph 1015.5mb 86f 83f
7:20am  -   -   -  9 11 mph 1015.6mb 86f 83f
7:10am  -   -   -  9 13 mph 1015.8mb 86f 83f
7:00am  -   -   -  9 11 mph 1015.8mb 86f 83f
6:40am 1.3ft  -  5s 9 11 mph 1015.9mb 86f 83f
6:30am  -   -   -  11 13 mph 1016.1mb 86f 83f
6:20am  -   -   -  11 13 mph 1016mb 86f 83f
6:10am  -   -   -  11 13 mph 1016.4mb 86f 83f
6:00am  -   -   -  11 13 mph 1016.4mb 86f 83f
5:50am 1.3ft 6s 4s 11 18 mph 1016.5mb 86f 83f
5:40am  -   -   -  11 13 mph 1016.4mb 86f 83f
5:30am  -   -   -  11 13 mph 1016.4mb 86f 83f
5:20am  -   -   -  11 13 mph 1016.4mb 86f 84f
5:10am  -   -   -  9 13 mph 1016.4mb 86f 84f
5:00am  -   -   -  9 13 mph 1016.5mb 86f 84f
4:50am 1.3ft 6s 4s 9 11 mph 1016.5mb 86f 83f
4:40am  -   -   -  9 11 mph 1016.6mb 86f 83f
4:30am  -   -   -  9 13 mph 1016.6mb 86f 83f
4:20am  -   -   -  9 13 mph 1016.8mb 86f 83f
4:10am  -   -   -  11 13 mph 1016.9mb 86f 83f
4:00am  -   -   -  13 16 mph 1016.8mb 86f 83f
3:50am 1.3ft 6s 4s 11 16 mph 1016.8mb 86f 84f
3:40am  -   -   -  13 16 mph 1016.6mb 86f 84f
3:30am  -   -   -  13 16 mph 1016.5mb 86f 84f
3:20am  -   -   -  13 16 mph 1016.6mb - 84f
3:10am  -   -   -  13 16 mph 1016.6mb 86f 84f
3:00am  -   -   -  11 16 mph 1016.6mb 86f 84f
2:50am 1.3ft 6s 4s 11 13 mph 1016.6mb 86f 84f
2:40am  -   -   -  13 16 mph 1016.6mb 86f 84f
2:30am  -   -   -  9 11 mph 1016.5mb 86f 84f
2:20am  -   -   -  9 13 mph 1016.4mb 86f 84f
2:10am  -   -   -  11 13 mph 1016.3mb 86f 84f
2:00am  -   -   -  9 13 mph 1016.1mb 86f 84f
1:50am 1.3ft 6s 4s 9 13 mph 1016mb 86f 84f
1:40am  -   -   -  9 11 mph 1015.9mb 86f 83f
1:30am  -   -   -  9 11 mph 1015.8mb 86f 83f
1:20am  -   -   -  11 13 mph 1015.5mb 86f 83f
1:10am  -   -   -  11 13 mph 1015.3mb 86f 83f
1:00am  -   -   -  9 11 mph 1015.1mb 86f 83f
12:50am 1.3ft 6s 4s 9 13 mph 1015.1mb 86f 83f
12:40am  -   -   -  9 13 mph 1015mb 86f 83f
12:30am  -   -   -  9 11 mph 1015mb 86f 83f
12:20am  -   -   -  11 13 mph 1015mb 86f 83f
12:10am  -   -   -  9 11 mph 1015.1mb 86f 83f
12:00am  -   -   -  9 13 mph 1015mb 86f 83f
Fri 08/28 11:50pm 1.3ft 6s 5s 9 13 mph 1015mb 86f 83f
11:40pm  -   -   -  9 11 mph 1015mb 86f 83f
11:30pm  -   -   -  9 11 mph 1015mb 86f 83f
11:20pm  -   -   -  9 11 mph 1015mb 86f 83f
11:10pm  -   -   -  9 13 mph 1014.9mb 86f 83f
11:00pm  -   -   -  11 13 mph 1014.8mb 86f 83f
10:50pm 1.3ft 6s 4s 9 16 mph 1014.8mb 86f 83f
10:40pm 1.3ft  -  4s 11 13 mph 1014.6mb 87f 83f
10:30pm  -   -   -  11 16 mph 1014.6mb 87f 83f
10:20pm  -   -   -  11 13 mph 1014.5mb 87f 83f
10:10pm  -   -   -  9 13 mph 1014.5mb 87f 83f
10:00pm  -   -   -  9 11 mph 1014.6mb 87f 83f
9:50pm 1.3ft 6s 5s 9 13 mph 1014.6mb 87f 83f
9:40pm  -   -   -  9 11 mph 1014.6mb 87f 83f
9:30pm  -   -   -  9 11 mph 1014.6mb 87f 83f
9:20pm  -   -   -  9 11 mph 1014.5mb 87f 83f
9:10pm  -   -   -  9 11 mph 1014.5mb 87f 83f
9:00pm  -   -   -  9 11 mph 1014.5mb 87f 83f
8:50pm 1.3ft 6s 5s 7 13 mph 1014.4mb 87f 83f
8:40pm  -   -   -  9 11 mph 1014.4mb 87f 83f
8:30pm  -   -   -  9 11 mph 1014.4mb 87f 83f
8:20pm  -   -   -  9 11 mph 1014.5mb 87f 83f
8:10pm  -   -   -  7 11 mph 1014.6mb 87f 83f
8:00pm  -   -   -  7 11 mph 1014.6mb 87f 83f
7:50pm 1.3ft 7s 5s 7 9 mph 1014.8mb 87f 83f
7:40pm  -   -   -  7 9 mph 1014.8mb 87f 83f
7:30pm  -   -   -  7 9 mph 1014.8mb 87f 83f
7:20pm  -   -   -  4 9 mph 1015mb 87f 83f
7:10pm  -   -   -  4 9 mph 1014.9mb 86f 83f
7:00pm  -   -   -  4 7 mph 1015mb 86f 83f
6:50pm 1.3ft 6s 5s 7 9 mph 1015mb 86f 83f
6:40pm 1.3ft  -  5s 7 9 mph 1015.3mb 86f 83f
6:30pm  -   -   -  7 9 mph 1015.5mb 86f 83f
6:20pm  -   -   -  7 9 mph 1015.6mb 86f 83f
6:10pm  -   -   -  4 7 mph 1015.8mb 86f 83f
6:00pm  -   -   -  7 11 mph 1016mb 86f 83f
5:50pm 1.6ft 6s 5s 7 9 mph 1016mb 86f 83f
5:40pm  -   -   -  4 9 mph 1016.1mb 86f 83f
5:30pm  -   -   -  7 9 mph 1016.3mb 86f 83f
5:20pm  -   -   -  7 11 mph 1016.4mb 86f 83f
5:10pm  -   -   -  7 11 mph 1016.3mb 86f 83f
5:00pm  -   -   -  7 9 mph 1016.3mb 86f 83f
4:50pm 1.6ft 6s 5s 7 9 mph 1016.3mb 86f 83f
4:40pm  -   -   -  7 9 mph 1016.3mb 86f 83f
4:30pm  -   -   -  4 9 mph 1016.4mb 86f 83f
4:20pm  -   -   -  2 7 mph 1016.3mb 86f 83f
4:10pm  -   -   -  2 4 mph 1016.4mb 86f 83f
4:00pm  -   -   -  2 4 mph 1016.3mb 86f 84f
3:50pm 1.6ft 5s 5s 2 4 mph 1016.5mb 86f 83f
3:40pm  -   -   -  2 4 mph 1016.4mb 86f 83f
3:30pm  -   -   -  2 4 mph 1016.3mb 86f 83f
3:20pm  -   -   -  2 4 mph 1016.3mb 86f 83f
3:10pm  -   -   -  2 4 mph 1016.4mb 86f 83f
3:00pm  -   -   -  4 7 mph 1016.4mb 86f 83f
2:50pm 1.6ft 5s 5s 4 7 mph 1016.3mb 86f 83f
2:40pm  -   -   -  4 7 mph 1016.1mb 86f 83f
2:30pm  -   -   -  4 7 mph 1016mb 86f 83f
2:20pm  -   -   -  4 7 mph 1016mb 86f 83f
2:10pm  -   -   -  4 7 mph 1015.8mb 86f 83f
2:00pm  -   -   -  7
mph
1015.8mb 86f 83f
1:50pm 1.6ft 6s 5s 4 7 mph 1015.6mb - 83f
1:40pm  -   -   -  4 9 mph 1015.5mb 86f 82f
1:30pm  -   -   -  4 7 mph 1015.5mb 86f 82f
1:20pm  -   -   -  4 9 mph 1015.3mb 85f 82f
1:10pm  -   -   -  7 9 mph 1015.1mb 85f 82f
1:00pm  -   -   -  4 9 mph 1015mb 85f 82f
12:50pm 1.6ft 6s 5s 4 7 mph 1015mb 85f 82f
12:40pm  -   -   -  4
mph
1014.8mb 85f 82f
12:30pm  -   -   -  4 7 mph 1014.8mb 85f 82f
12:20pm  -   -   -  4
mph
1014.5mb 85f 82f
12:10pm  -   -   -  4 7 mph 1014.5mb 85f 82f
12:00pm  -   -   -  4 7 mph 1014.5mb 85f 82f
11:50am 1.6ft 6s 5s 4 7 mph 1014.5mb 85f 82f
11:40am  -   -   -  4 7 mph 1014.5mb 85f 82f
11:30am  -   -   -  4 7 mph 1014.3mb 85f 82f
11:20am  -   -   -  4 7 mph 1014.1mb 85f 82f
11:10am  -   -   -  2 7 mph 1014.1mb 85f 82f
11:00am  -   -   -  4 9 mph 1014.1mb 85f 82f
10:50am 1.6ft 5s 5s 4 7 mph 1014mb 85f 82f
10:40am  -   -   -  2 7 mph 1013.9mb 85f 82f
10:30am  -   -   -  2 4 mph 1013.9mb 85f 82f
10:20am  -   -   -  4 7 mph 1013.9mb 85f 82f
10:10am  -   -   -  2 7 mph 1013.8mb 85f 82f
10:00am  -   -   -  2 7 mph 1013.6mb 85f 82f
9:50am 1.6ft 6s 5s 4 7 mph 1013.6mb 85f 82f
9:40am  -   -   -  4 7 mph 1013.6mb 85f 82f
9:30am  -   -   -  2 7 mph 1013.6mb 85f 82f
9:20am  -   -   -  4 7 mph 1013.5mb 85f 82f
9:10am  -   -   -  4 9 mph 1013.5mb 85f 82f
9:00am  -   -   -  4 7 mph 1013.5mb 85f 82f
8:50am 1.6ft 6s 5s 7 9 mph 1013.5mb 85f 82f
8:40am  -   -   -  4 9 mph 1013.5mb 85f 82f
8:30am  -   -   -  4 7 mph 1013.8mb 85f 82f
8:20am  -   -   -  4 7 mph 1013.9mb 85f 82f
8:10am  -   -   -  4 7 mph 1013.9mb 85f 82f
8:00am  -   -   -  4 7 mph 1013.9mb 85f 82f
7:50am 1.6ft 6s 5s 4 7 mph 1013.9mb 85f 82f
7:40am  -   -   -  4 9 mph 1014.1mb 85f 82f
7:30am  -   -   -  4 9 mph 1014.1mb 85f 82f
7:20am  -   -   -  4 9 mph 1014.1mb 85f 82f
7:10am  -   -   -  2 7 mph 1014.4mb 85f 82f
7:00am  -   -   -  2 4 mph 1014.5mb 85f 82f
6:50am 1.6ft 6s 4s 4 7 mph 1014.5mb 85f 82f
6:40am  -   -   -  4 9 mph 1014.6mb 85f 82f
6:30am  -   -   -  4 7 mph 1014.8mb 85f 82f
6:20am  -   -   -  4 7 mph 1014.6mb 85f 82f
6:10am  -   -   -  4 7 mph 1014.8mb 85f 83f
6:00am  -   -   -  4 7 mph 1014.9mb 86f 83f
5:50am 2ft 6s 5s 4 7 mph 1015mb 85f 83f
5:40am  -   -   -  4 9 mph 1015mb 86f 83f
5:30am  -   -   -  4 9 mph 1015mb 86f 83f
5:20am  -   -   -  7 9 mph 1015.4mb 86f 83f
5:10am  -   -   -  7 9 mph 1015.5mb 86f 83f
5:00am  -   -   -  7 9 mph 1015.5mb 86f 83f
4:50am 2ft 6s 5s 7 9 mph 1015.6mb 86f 83f
4:40am  -   -   -  7 11 mph 1015.8mb 86f 83f
4:30am  -   -   -  4 9 mph 1016mb 86f 83f
4:20am  -   -   -  4 7 mph 1015.9mb 86f 83f
4:10am  -   -   -  4 9 mph 1015.9mb 86f 83f
4:00am  -   -   -  7 11 mph 1015.8mb 86f 83f
3:50am 2ft 6s 5s 4 9 mph 1015.8mb 86f 83f
3:40am  -   -   -  4 9 mph 1015.8mb 86f 83f
3:30am  -   -   -  7 9 mph 1015.8mb 86f 83f
3:20am  -   -   -  7 9 mph 1015.6mb 86f 83f
3:10am  -   -   -  4 9 mph 1015.5mb 86f 83f
3:00am  -   -   -  9 11 mph 1015.4mb 86f 83f
2:50am 2.5ft 6s 5s 7 11 mph 1015.1mb 86f 83f
2:40am  -   -   -  9 11 mph 1015mb 86f 83f
2:30am  -   -   -  9 13 mph 1015.1mb 86f 83f
2:20am  -   -   -  9 11 mph 1015mb 86f 83f
2:10am  -   -   -  9 11 mph 1014.8mb 86f 83f
2:00am  -   -   -  11 16 mph 1014.8mb 86f 83f
1:50am 2.5ft 5s 5s 11 13 mph 1014.6mb 86f 83f
1:40am  -   -   -  9 13 mph 1014.5mb 86f 83f
1:30am  -   -   -  9 13 mph 1014.4mb 85f 83f
1:20am  -   -   -  9 11 mph 1014.4mb 85f 83f
1:10am  -   -   -  9 13 mph 1014.1mb 86f 83f
1:00am  -   -   -  9 13 mph 1014.1mb 86f 83f
12:50am 2ft 6s 5s 7 11 mph 1014.1mb 86f 83f
12:40am 2ft  -  5s 9 13 mph 1014mb 86f 83f
12:30am  -   -   -  9 11 mph 1014mb 86f 83f
12:20am  -   -   -  9 11 mph 1014mb 86f 83f
12:10am  -   -   -  9 11 mph 1013.9mb 86f 83f
12:00am  -   -   -  11 13 mph 1013.9mb 86f 83f
Thu 08/27 11:50pm 2.5ft 6s 5s 9 13 mph 1013.9mb 86f 84f
11:40pm  -   -   -  9 13 mph 1013.9mb 86f 84f
11:30pm  -   -   -  7 11 mph 1013.9mb 86f 83f
11:20pm  -   -   -  9 13 mph 1014mb 86f 84f
11:10pm  -   -   -  9 13 mph 1014mb 86f 83f
11:00pm  -   -   -  7 11 mph 1013.9mb 86f 83f
10:50pm 2.5ft 6s 5s 7 9 mph 1013.9mb 86f 83f
10:40pm  -   -   -  7 11 mph 1014mb 86f 83f
10:30pm  -   -   -  7 9 mph 1013.9mb 86f 83f
10:20pm  -   -   -  9 11 mph 1013.9mb 86f 83f
10:10pm  -   -   -  9 11 mph 1013.9mb 86f 83f
10:00pm  -   -   -  7 11 mph 1013.9mb 86f 83f
9:50pm 2.5ft 6s 5s 7 11 mph 1013.9mb 86f 83f
9:40pm  -   -   -  7 11 mph 1013.9mb 86f 83f
9:30pm  -   -   -  7 11 mph 1013.9mb 86f 83f
9:20pm  -   -   -  7 11 mph 1013.9mb 86f 83f
9:10pm  -   -   -  7 9 mph 1013.9mb 86f 83f
9:00pm  -   -   -  7 9 mph 1013.9mb 86f 83f
8:50pm 2.5ft 5s 5s 7 11 mph 1014mb 86f 83f
8:40pm  -   -   -  7 11 mph 1014.1mb 86f 83f
8:30pm  -   -   -  9 13 mph 1014.1mb 86f 83f
8:20pm  -   -   -  9 11 mph 1014.4mb 86f 83f
8:10pm  -   -   -  9 11 mph 1014.5mb 86f 83f
8:00pm  -   -   -  9 13 mph 1014.5mb 86f 83f
7:50pm 2.5ft 6s 5s 9 13 mph 1014.6mb 86f 83f
7:40pm  -   -   -  9 13 mph 1014.8mb 86f 83f
7:30pm  -   -   -  9 13 mph 1014.6mb 86f 83f
7:20pm  -   -   -  9 11 mph 1014.9mb 86f 83f
7:10pm  -   -   -  7 13 mph 1015mb 86f 83f
7:00pm  -   -   -  7 9 mph 1015mb 86f 83f
6:50pm 2.5ft 7s 5s 7 11 mph 1015mb 86f 83f
6:40pm  -   -   -  7 11 mph 1015.3mb 86f 83f
6:30pm  -   -   -  7 13 mph 1015.1mb 86f 83f
6:20pm  -   -   -  7 9 mph 1015.3mb 86f 83f
6:10pm  -   -   -  9 11 mph 1015.3mb 86f 83f
6:00pm  -   -   -  7 11 mph 1015.4mb 86f 83f
5:50pm 2.5ft 6s 5s 7 11 mph 1015.5mb 86f 83f
5:40pm  -   -   -  9 11 mph 1015.6mb 86f 83f
5:30pm  -   -   -  7 11 mph 1015.8mb 86f 82f
5:20pm  -   -   -  7 13 mph 1015.8mb 86f 83f
5:10pm  -   -   -  9 13 mph 1015.9mb 86f 83f
5:00pm  -   -   -  9 11 mph 1015.9mb 86f 83f
4:50pm 2.5ft 7s 5s 7 11 mph 1016mb 86f 83f
4:40pm 2.5ft  -  5s 9 13 mph 1016mb 86f 83f
4:30pm  -   -   -  7 11 mph 1016mb 86f 83f
4:20pm  -   -   -  9 11 mph 1016.1mb 86f 82f
4:10pm  -   -   -  9 11 mph 1016.1mb 86f 82f
4:00pm  -   -   -  7 11 mph 1016.3mb 86f 82f
3:50pm 2.5ft 6s 5s 7 11 mph 1016.3mb 86f 82f
3:40pm  -   -   -  7 9 mph 1016.3mb 85f 82f
3:30pm  -   -   -  4 7 mph 1016.3mb 85f 82f
3:20pm  -   -   -  4 11 mph 1016.3mb 85f 82f
3:10pm  -   -   -  4 9 mph 1016.3mb 85f 82f
3:00pm  -   -   -  7 9 mph 1016.3mb 85f 82f
2:50pm 2.5ft 6s 5s 7 11 mph 1016.1mb 85f 82f
2:40pm 2.5ft  -  5s 4 9 mph 1016.1mb 85f 82f
2:30pm  -   -   -  4 7 mph 1016mb 85f 82f
2:20pm  -   -   -  4 9 mph 1016mb 85f 82f
2:10pm  -   -   -  4 9 mph 1015.9mb 85f 82f
2:00pm  -   -   -  4 9 mph 1015.6mb 85f 82f
1:50pm 3ft 7s 5s 4 7 mph 1015.6mb 85f 82f
1:40pm  -   -   -  7 11 mph 1015.6mb 85f 82f
1:30pm  -   -   -  7 11 mph 1015.5mb 85f 82f
1:20pm  -   -   -  4 9 mph 1015.5mb 85f 82f
1:10pm  -   -   -  7 9 mph 1015.4mb 85f 82f
1:00pm  -   -   -  7 11 mph 1015.4mb 85f 82f
12:50pm 3ft 6s 5s 7 11 mph 1015.4mb 85f 82f
12:40pm  -   -   -  7 11 mph 1015mb 85f 82f
12:30pm  -   -   -  7 11 mph 1015mb 86f 82f
12:20pm  -   -   -  7 13 mph 1014.8mb 86f 82f
12:10pm  -   -   -  9 11 mph 1014.5mb 86f 82f
12:00pm  -   -   -  9 11 mph 1014.4mb 86f 82f
11:50am 2.5ft 6s 5s 9 13 mph 1014.5mb 86f 82f
11:40am  -   -   -  9 13 mph 1014.5mb 86f 82f
11:30am  -   -   -  9 11 mph 1014.5mb 86f 82f
11:20am  -   -   -  7 11 mph 1014.4mb 86f 82f
11:10am  -   -   -  9 13 mph 1014.3mb 86f 82f
11:00am  -   -   -  7 11 mph 1014.1mb 86f 82f
10:50am 2.5ft 7s 5s 9 11 mph 1014.3mb 86f 82f
10:40am  -   -   -  9 11 mph 1014.4mb 86f 82f
10:30am  -   -   -  9 13 mph 1014.4mb 86f 82f
10:20am  -   -   -  11 13 mph 1014.5mb 86f 82f
10:10am  -   -   -  9 16 mph 1014.4mb 86f 82f
10:00am  -   -   -  9 16 mph 1014.4mb 86f 82f
9:50am 2.5ft 6s 5s 11 16 mph 1014.4mb 86f 82f
9:40am  -   -   -  11 16 mph 1014.5mb 86f 82f
9:30am  -   -   -  9 13 mph 1014.5mb 86f 82f
9:20am  -   -   -  9 13 mph 1014.4mb 86f 83f
9:10am  -   -   -  9 13 mph 1014.5mb 86f 83f
9:00am  -   -   -  9 13 mph 1014.4mb 86f 83f
8:50am 3ft 8s 5s 7 13 mph 1014.3mb 86f 82f
8:40am  -   -   -  9 11 mph 1014.4mb 86f 83f
8:30am  -   -   -  7 11 mph 1014.5mb 86f 83f
8:20am  -   -   -  7 11 mph 1014.5mb 86f 83f
8:10am  -   -   -  9 13 mph 1014.6mb 86f 83f
8:00am  -   -   -  9 13 mph 1014.8mb 86f 83f
7:50am 3ft 6s 5s 11 16 mph 1014.8mb 86f 83f
7:40am  -   -   -  9 13 mph 1014.8mb 86f 83f
7:30am  -   -   -  9 13 mph 1014.8mb 86f 83f
7:20am  -   -   -  11 13 mph 1014.8mb 86f 83f
7:10am  -   -   -  9 13 mph 1014.9mb 86f 83f
7:00am  -   -   -  11 13 mph 1014.9mb 86f 83f
6:50am 3.5ft 7s 5s 11 13 mph 1015mb 86f 83f
6:40am  -   -   -  11 13 mph 1014.9mb 86f 83f
6:30am  -   -   -  9 13 mph 1015mb 86f 83f
6:20am  -   -   -  9 13 mph 1014.8mb 86f 83f
6:10am  -   -   -  11 16 mph 1015mb 86f 83f
6:00am  -   -   -  11 13 mph 1015mb 86f 83f
5:50am 3ft 6s 5s 9 13 mph 1015.3mb 86f 83f
5:40am  -   -   -  9 13 mph 1015.1mb 86f 83f
5:30am  -   -   -  9 13 mph 1015.1mb 86f 83f
5:20am  -   -   -  9 13 mph 1015.3mb 86f 83f
5:10am  -   -   -  9 13 mph 1015.4mb 86f 83f
5:00am  -   -   -  11 13 mph 1015.5mb 86f 83f
4:50am 3.5ft 6s 5s 9 13 mph 1015.5mb 86f 83f
4:40am  -   -   -  9 13 mph 1015.5mb 86f 83f
4:30am  -   -   -  11 16 mph 1015.6mb 86f 83f
4:20am  -   -   -  9 13 mph 1015.8mb 86f 83f
4:10am  -   -   -  9 13 mph 1015.8mb 86f 83f
4:00am  -   -   -  9 13 mph 1015.8mb 86f 83f
3:50am 3ft 6s 5s 7 11 mph 1015.9mb 86f 84f
3:40am  -   -   -  9 13 mph 1015.8mb 87f 83f
3:30am  -   -   -  9 13 mph 1015.9mb 86f 83f
3:20am  -   -   -  9 11 mph 1015.9mb 86f 84f
3:10am  -   -   -  9 13 mph 1015.9mb 86f 84f
3:00am  -   -   -  9 11 mph 1015.9mb 86f 84f
2:50am 3ft 6s 5s 9 11 mph 1015.8mb 86f 84f
2:40am  -   -   -  9 13 mph 1015.6mb 86f 84f
2:30am  -   -   -  9 11 mph 1015.6mb 86f 84f
2:20am  -   -   -  9 13 mph 1015.5mb 86f 84f
2:10am  -   -   -  9 11 mph 1015.4mb 86f 84f
2:00am  -   -   -  9 13 mph 1015.5mb 86f 84f
1:50am 3.5ft 8s 5s 9 13 mph 1015.3mb 86f 84f
1:40am  -   -   -  9 13 mph 1015mb 86f 84f
1:30am  -   -   -  11 13 mph 1014.9mb 86f 84f
1:20am  -   -   -  11 16 mph 1014.8mb 86f 84f
1:10am  -   -   -  9 13 mph 1014.6mb 86f 84f
1:00am  -   -   -  11 13 mph 1014.6mb 86f 84f
12:50am 3.5ft 6s 5s 11 16 mph 1014.8mb 86f 84f
12:40am  -   -   -  11 16 mph 1014.6mb 86f 84f
12:30am  -   -   -  9 13 mph 1014.6mb 86f 84f
12:20am  -   -   -  11 16 mph 1014.5mb 86f 84f
12:10am  -   -   -  9 13 mph 1014.4mb 86f 84f
12:00am  -   -   -  9 16 mph 1014.4mb 86f 84f
Wed 08/26 11:50pm 3.5ft 8s 5s 11 13 mph 1014.4mb 86f 84f
11:40pm  -   -   -  9 16 mph 1014.5mb 86f 84f
11:30pm  -   -   -  11 13 mph 1014.4mb 86f 84f
11:20pm  -   -   -  11 13 mph 1014.4mb 86f 84f
11:10pm  -   -   -  9 13 mph 1014.3mb 86f 84f
11:00pm  -   -   -  11 16 mph 1014.3mb 85f 84f
10:50pm 3.5ft 6s 5s 9 13 mph 1014.4mb 85f 84f
10:40pm  -   -   -  11 16 mph 1014.4mb 85f 84f
10:30pm  -   -   -  11 18 mph 1014.4mb 85f 85f
10:20pm  -   -   -  11 16 mph 1014.4mb 85f 84f
10:10pm  -   -   -  11 13 mph 1014.4mb 85f 85f
10:00pm  -   -   -  11 13 mph 1014.4mb 85f 85f
9:50pm 3.5ft 8s 6s 11 16 mph 1014.5mb 85f 85f
9:40pm  -   -   -  11 13 mph 1014.6mb 85f 85f
9:30pm  -   -   -  11 13 mph 1014.9mb 85f 85f
9:20pm  -   -   -  11 16 mph 1014.9mb 86f 85f
9:10pm  -   -   -  9 13 mph 1015mb 85f 85f
9:00pm  -   -   -  11 13 mph 1015mb 85f 85f
8:50pm 3.5ft 8s 5s 9 13 mph 1015mb 85f 85f
8:40pm  -   -   -  9 13 mph 1015mb 85f 85f
8:30pm  -   -   -  9 13 mph 1015mb 85f 85f
8:20pm  -   -   -  11 13 mph 1015.1mb - -
8:10pm  -   -   -  11 16 mph 1015.1mb - -
8:00pm  -   -   -  11 13 mph 1015.3mb - -
7:50pm  -   -   -  11 13 mph 1015.3mb - -
7:40pm  -   -   -  9 13 mph 1015.5mb - -
11:50am 3.5ft 8s 6s 13 16 mph 1014.6mb 85f 84f
10:50am 3.5ft 7s 6s 11 16 mph 1014.2mb 85f 84f
9:50am 3.5ft 7s 6s 11 13 mph 1014.3mb 85f 85f
8:50am 3ft 7s 6s 13 16 mph 1014.3mb 85f 84f
7:50am 3.5ft 7s 6s 13 16 mph 1014.2mb 85f 85f
6:50am 2.5ft 7s 5s 13 16 mph 1014.5mb 85f 85f
5:50am 2.5ft 7s 5s 13 16 mph 1015.3mb 85f 83f
4:50am 2.5ft 7s 5s 2 4 mph 1016.3mb 85f 84f
2:50am 2.5ft 7s 5s 13 20 mph 1015mb 86f 85f
1:50am 2ft 7s 5s 11 18 mph 1015mb 86f 85f
12:50am 2ft 7s 5s 7 9 mph 1014.1mb 86f 85f
Tue 08/25 11:50pm 2ft 7s 5s 9 11 mph 1013.4mb 86f 85f
10:50pm 2ft 7s 5s 9 11 mph 1013.7mb 86f 86f
9:50pm 2ft 7s 5s 11 13 mph 1014mb 85f 86f
8:50pm 2ft 6s 5s 9 11 mph 1014.3mb 86f 86f
7:50pm 2ft 7s 5s 7
mph
1014.8mb 86f 86f
6:50pm 2ft 5s 5s 4 7 mph 1015.3mb 86f 85f
5:50pm 1.6ft 6s 5s 4 7 mph 1015.9mb 86f 85f
4:50pm 1.6ft 6s 5s 9 13 mph 1016.2mb 85f 85f
3:50pm 2ft 7s 5s 4 7 mph 1015.6mb 86f 85f
2:50pm 2ft 7s 5s 4
mph
1015.2mb 85f 86f
1:50pm 1.6ft 7s 5s 9 11 mph 1015.8mb 85f 85f
12:50pm 1.6ft 7s 5s 9 11 mph 1016.3mb 85f 85f
11:50am 2ft 7s 5s 9 11 mph 1015.5mb 85f 85f
10:50am 2ft 7s 5s 7 9 mph 1014.9mb 85f 85f
9:50am 1.6ft 7s 5s 4 7 mph 1014.2mb 85f 85f